SPXLT LFLJ-EPKK

Flight info

Callsign SPXLT
Flight time N/A
Altitude 17000
Route VANAS DCT ESOKO/N0188F210 DCT GODRA DCT GAMSA DCT BADVI DCT NEMAL DCT LEDVA DCT NETIR
Aircraft DA62/L-SDFGRBYW/C

Departure

Time 2026-05-09 17:40
Airport Courchevel Altiport (LFLJ)

Arrival

Time N/A
Airport Kraków John Paul II International Airport (EPKK)
Time Latitude Longitude Altitude Speed Heading
2026-05-09 17:25 45.39570 6.63347 6590 ft 0 kts 171°
2026-05-09 17:26 45.39576 6.63346 6590 ft 0 kts 171°
2026-05-09 17:38 45.39574 6.63346 6590 ft 2 kts 183°
2026-05-09 17:38 45.39579 6.63317 6591 ft 3 kts 313°
2026-05-09 17:39 45.39618 6.63317 6599 ft 5 kts 25°
2026-05-09 17:39 45.39630 6.63328 6596 ft 0 kts 34°
2026-05-09 17:39 45.39794 6.63554 6472 ft 79 kts 43°
2026-05-09 17:40 45.40298 6.64242 6560 ft 104 kts 46°
2026-05-09 17:40 45.40798 6.64998 6834 ft 108 kts 47°
2026-05-09 17:40 45.41358 6.65765 7121 ft 112 kts 45°
2026-05-09 17:40 45.41940 6.66519 7411 ft 115 kts 43°
2026-05-09 17:41 45.42544 6.67268 7725 ft 116 kts 43°
2026-05-09 17:41 45.43163 6.67992 8047 ft 114 kts 41°
2026-05-09 17:41 45.43766 6.68693 8398 ft 110 kts 43°
2026-05-09 17:41 45.44346 6.69362 8739 ft 103 kts 43°
2026-05-09 17:42 45.44882 6.69970 9089 ft 94 kts 42°
2026-05-09 17:42 45.45392 6.70551 9313 ft 99 kts 44°
2026-05-09 17:42 45.45922 6.71197 9606 ft 103 kts 46°
2026-05-09 17:42 45.46484 6.71838 9945 ft 104 kts 42°
2026-05-09 17:43 45.47049 6.72492 10268 ft 107 kts 42°
2026-05-09 17:43 45.47630 6.73160 10614 ft 107 kts 43°
2026-05-09 17:43 45.48202 6.73827 10971 ft 105 kts 44°
2026-05-09 17:43 45.48773 6.74494 11280 ft 107 kts 43°
2026-05-09 17:44 45.49354 6.75168 11610 ft 108 kts 43°
2026-05-09 17:44 45.49932 6.75844 11927 ft 109 kts 42°
2026-05-09 17:44 45.50520 6.76544 12243 ft 110 kts 41°
2026-05-09 17:44 45.51104 6.77249 12558 ft 110 kts 43°
2026-05-09 17:45 45.51690 6.77958 12857 ft 111 kts 43°
2026-05-09 17:45 45.52274 6.78678 13154 ft 111 kts 43°
2026-05-09 17:45 45.52854 6.79400 13460 ft 112 kts 43°
2026-05-09 17:45 45.53449 6.80153 13796 ft 113 kts 43°
2026-05-09 17:46 45.54032 6.80898 14079 ft 114 kts 43°
2026-05-09 17:46 45.54628 6.81660 14368 ft 115 kts 43°
2026-05-09 17:46 45.55228 6.82429 14646 ft 117 kts 43°
2026-05-09 17:46 45.55838 6.83213 14942 ft 118 kts 43°
2026-05-09 17:47 45.56518 6.83880 15216 ft 120 kts 27°
2026-05-09 17:47 45.57256 6.84435 15525 ft 123 kts 28°
2026-05-09 17:47 45.58013 6.85006 15802 ft 124 kts 27°
2026-05-09 17:47 45.58774 6.85585 16041 ft 124 kts 27°
2026-05-09 17:48 45.59538 6.86160 16236 ft 125 kts 28°
2026-05-09 17:48 45.60295 6.86774 16504 ft 126 kts 30°
2026-05-09 17:48 45.61058 6.87403 16786 ft 127 kts 30°
2026-05-09 17:48 45.61826 6.88040 17043 ft 131 kts 30°
2026-05-09 17:49 45.62679 6.88749 17056 ft 153 kts 30°
2026-05-09 17:49 45.63661 6.89567 17051 ft 172 kts 30°
2026-05-09 17:49 45.64725 6.90452 17053 ft 184 kts 30°
2026-05-09 17:49 45.65863 6.91402 17050 ft 194 kts 30°
2026-05-09 17:50 45.67019 6.92470 17044 ft 199 kts 34°
2026-05-09 17:50 45.69412 6.94556 17042 ft 205 kts 29°
2026-05-09 17:50 45.70658 6.95570 17043 ft 206 kts 29°
2026-05-09 17:51 45.71904 6.96594 17045 ft 208 kts 30°
2026-05-09 17:51 45.73161 6.97634 17041 ft 209 kts 29°
2026-05-09 17:51 45.74423 6.98678 17041 ft 210 kts 29°
2026-05-09 17:51 45.75684 6.99720 17037 ft 208 kts 29°
2026-05-09 17:52 45.76933 7.00753 17040 ft 208 kts 29°
2026-05-09 17:52 45.78174 7.01780 17038 ft 209 kts 29°
2026-05-09 17:52 45.78737 7.02245 17034 ft 209 kts 29°
2026-05-09 17:53 45.79933 7.03236 17032 ft 210 kts 29°
2026-05-09 17:53 45.81196 7.04283 17032 ft 210 kts 29°
2026-05-09 17:53 45.82468 7.05337 17021 ft 211 kts 29°
2026-05-09 17:53 45.83730 7.06383 17030 ft 210 kts 29°
2026-05-09 17:54 45.84984 7.07424 17025 ft 209 kts 29°
2026-05-09 17:54 45.86243 7.08470 17026 ft 209 kts 29°
2026-05-09 17:54 45.87504 7.09517 17024 ft 210 kts 29°
2026-05-09 17:54 45.88762 7.10568 17026 ft 209 kts 29°
2026-05-09 17:55 45.90012 7.11625 17017 ft 207 kts 29°
2026-05-09 17:55 45.91257 7.12677 17028 ft 208 kts 29°
2026-05-09 17:55 45.92503 7.13729 17025 ft 207 kts 29°
2026-05-09 17:55 45.93740 7.14772 17024 ft 207 kts 29°
2026-05-09 17:56 45.94983 7.15822 17029 ft 207 kts 29°
2026-05-09 17:56 45.96232 7.16877 17032 ft 209 kts 29°
2026-05-09 17:56 45.97488 7.17939 17008 ft 209 kts 30°
2026-05-09 17:57 45.99980 7.20048 16998 ft 209 kts 29°
2026-05-09 17:57 46.01219 7.21096 16998 ft 209 kts 29°
2026-05-09 17:57 46.02476 7.22162 16984 ft 208 kts 29°
2026-05-09 17:57 46.03726 7.23222 16982 ft 208 kts 29°
2026-05-09 17:58 46.04970 7.24277 16973 ft 207 kts 29°
2026-05-09 17:58 46.06208 7.25327 16972 ft 206 kts 29°
2026-05-09 17:58 46.07448 7.26380 16966 ft 207 kts 29°
2026-05-09 17:58 46.08690 7.27435 16961 ft 207 kts 29°
2026-05-09 17:59 46.09935 7.28493 16960 ft 207 kts 29°
2026-05-09 17:59 46.11171 7.29545 16951 ft 206 kts 28°
2026-05-09 17:59 46.12388 7.30579 16943 ft 205 kts 29°
2026-05-09 17:59 46.13609 7.31618 16944 ft 202 kts 29°
2026-05-09 18:00 46.14828 7.32656 16947 ft 204 kts 29°
2026-05-09 18:00 46.16053 7.33701 16939 ft 205 kts 28°
2026-05-09 18:00 46.17264 7.34733 16939 ft 206 kts 29°
2026-05-09 18:00 46.18494 7.35782 16941 ft 206 kts 28°
2026-05-09 18:01 46.19729 7.36836 16942 ft 206 kts 28°
2026-05-09 18:01 46.20962 7.37890 16948 ft 206 kts 29°
2026-05-09 18:01 46.22190 7.38938 16947 ft 205 kts 28°
2026-05-09 18:01 46.23416 7.39986 16950 ft 205 kts 28°
2026-05-09 18:02 46.24640 7.41033 16947 ft 204 kts 28°
2026-05-09 18:02 46.25859 7.42076 16948 ft 203 kts 28°
2026-05-09 18:02 46.27073 7.43116 16945 ft 203 kts 28°
2026-05-09 18:02 46.28290 7.44159 16949 ft 203 kts 28°
2026-05-09 18:03 46.29508 7.45202 16955 ft 203 kts 28°
2026-05-09 18:03 46.30723 7.46244 16956 ft 203 kts 28°
2026-05-09 18:03 46.31934 7.47283 16959 ft 202 kts 28°
2026-05-09 18:03 46.33143 7.48321 16964 ft 201 kts 28°
2026-05-09 18:04 46.34341 7.49350 16965 ft 200 kts 28°
2026-05-09 18:04 46.35536 7.50376 16973 ft 199 kts 28°
2026-05-09 18:04 46.36726 7.51400 16971 ft 198 kts 28°
2026-05-09 18:04 46.37897 7.52407 16975 ft 198 kts 28°
2026-05-09 18:05 46.39079 7.53424 16979 ft 198 kts 28°